Location: Star Dogged Moon Observatory
(29.7756°N, 82.0783°W)
Time: 13:50:02
(UTC-04:00)

ARGOS - Visible Passes

Search period start: 06 July 2015 00:00
Search period end: 16 July 2015 00:00
Orbit: 820 x 836 km, 98.7° (Epoch: 06 July)

Date Brightness Start Highest point End Pass type
(mag) Time Alt. Az. Time Alt. Az. Time Alt. Az.
06 Jul 5.1 00:13:18 20° W 00:13:18 20° W 00:16:41 10° NW visible
06 Jul 4.4 22:13:05 23° E 22:14:05 24° ENE 22:18:24 10° NNE visible
06 Jul 4.5 23:54:36 31° W 23:54:36 31° W 23:58:54 10° NW visible
07 Jul 4.9 21:54:22 15° E 21:55:43 16° ENE 21:59:01 10° NNE visible
07 Jul 3.8 23:35:53 49° W 23:35:53 49° W 23:40:48 10° NNW visible
08 Jul 3.1 23:17:11 77° W 23:17:11 77° W 23:22:29 10° NNW visible
09 Jul 3.0 22:58:29 69° E 22:58:38 69° ENE 23:03:59 10° N visible
10 Jul 3.5 22:39:47 43° E 22:40:12 44° ENE 22:45:17 10° N visible
11 Jul 5.3 00:21:18 17° W 00:21:18 17° W 00:23:57 10° NW visible
11 Jul 4.1 22:21:05 28° E 22:21:48 29° ENE 22:26:24 10° NNE visible
12 Jul 4.8 00:02:35 26° W 00:02:35 26° W 00:06:25 10° NW visible
12 Jul 4.7 22:02:22 18° E 22:03:25 19° ENE 22:07:13 10° NNE visible
12 Jul 4.1 23:43:53 40° W 23:43:53 40° W 23:48:25 10° NNW visible
13 Jul 5.1 21:43:41 11° E 21:45:05 12° ENE 21:47:21 10° NE visible
13 Jul 3.4 23:25:12 63° W 23:25:12 63° W 23:30:11 10° NNW visible
14 Jul 3.0 23:06:30 82° NE 23:06:30 82° NE 23:11:45 10° N visible
15 Jul 3.3 22:47:48 53° E 22:47:56 53° ENE 22:53:09 10° N visible
